Dewpoint
-1 -3 -7 -10 -11 -12 -13 -13 -14 -15 -16 -16 -16 -14 -13 -11 -9 -8 -7 -6 -5 -4 -3 -2 -1 0 1 0 -1 -4 -2 2
-1 -3 -7 -9 -11 -12 -12 -13 -14 -15 -16 -17 -16 -14 -12 -11 -11 -10 -8 -7 -6 -4 -2 -1 0 1 1 1 2 2 -3 1
-1 -3 -6 -9 -10 -11 -12 -12 -12 -13 -14 -14 -13 -11 -8 -8 -8 -9 -9 -8 -6 -5 -5 -4 -2 -0 1 2 3 3 3 1
-2 -3 -4 -7 -10 -11 -11 -11 -11 -12 -12 -11 -9 -4 -3 -4 -9 -6 -10 -10 -9 -6 -4 -2 -2 0 1 1 3 3 3 3
-2 -3 -4 -6 -9 -10 -10 -11 -11 -11 -11 -10 -9 -5 -4 -8 -6 -9 -11 -10 -10 -8 -6 -4 -1 1 2 2 3 3 3 3
-2 -4 -4 -6 -9 -9 -9 -9 -10 -10 -10 -9 -8 -5 -4 -2 -2 -3 -5 -9 -9 -8 -5 -2 -1 0 2 2 2 2 3 2
-2 -4 -5 -5 -9 -9 -9 -9 -8 -9 -9 -9 -8 -8 -5 -2 -2 -2 -3 -4 -6 -7 -6 -5 -2 -1 1 2 2 2 2 2
-2 -4 -5 -5 -6 -8 -8 -8 -8 -8 -9 -8 -9 -8 -5 -3 -2 -2 -2 -2 -3 -5 -5 -5 -4 -1 -0 1 1 1 2 2
-3 -4 -4 -5 -7 -7 -8 -9 -8 -9 -9 -9 -7 -6 -3 -3 -2 -2 -2 -2 -3 -5 -5 -4 -3 -1 -0 -0 0 1 1 2
-3 -4 -4 -5 -6 -8 -10 -10 -10 -12 -12 -11 -8 -6 -4 -4 -4 -3 -3 -3 -4 -5 -5 -4 -3 -2 -1 -1 -0 0 1 1
-3 -4 -4 -5 -8 -9 -11 -11 -11 -12 -11 -11 -9 -7 -5 -5 -6 -4 -4 -4 -5 -5 -5 -4 -3 -3 -2 -2 -2 -1 -1 0
-3 -3 -4 -6 -7 -7 -9 -11 -11 -10 -10 -10 -8 -8 -7 -6 -7 -6 -4 -5 -5 -5 -5 -4 -4 -3 -3 -3 -3 -3 -3 -1
-3 -3 -4 -5 -6 -9 -9 -11 -10 -10 -10 -9 -8 -7 -7 -6 -5 -6 -5 -5 -5 -6 -6 -5 -4 -4 -4 -4 -4 -3 -4 -4
-3 -3 -6 -8 -10 -11 -10 -10 -8 -9 -9 -8 -6 -7 -7 -6 -6 -7 -6 -6 -6 -6 -6 -6 -5 -5 -5 -5 -5 -5 -4 -3
-3 -5 -7 -8 -9 -10 -11 -10 -9 -10 -9 -6 -6 -7 -7 -7 -8 -7 -6 -7 -7 -7 -7 -7 -6 -6 -6 -5 -7 -6 -5 -4
-3 -6 -7 -8 -9 -10 -10 -10 -10 -10 -8 -7 -7 -6 -7 -7 -8 -7 -7 -7 -7 -7 -7 -7 -7 -7 -7 -7 -7 -7 -5 -5
-4 -4 -7 -7 -6 -9 -10 -10 -10 -8 -7 -7 -7 -7 -7 -7 -8 -7 -7 -7 -7 -8 -8 -8 -7 -8 -8 -7 -7 -7 -6 -6
-4 -4 -5 -4 -8 -9 -9 -9 -9 -8 -7 -7 -7 -8 -8 -8 -8 -7 -8 -8 -8 -9 -8 -8 -8 -8 -8 -8 -8 -7 -7 -6
-4 -3 -1 -6 -9 -10 -10 -9 -8 -7 -7 -7 -8 -9 -8 -8 -8 -8 -9 -9 -9 -9 -8 -8 -9 -9 -9 -9 -8 -8 -8 -7
Wind_Speed
11 8 8 7 5 4 4 4 6 7 9 11 12 13 14 14 14 15 16 17 18 18 18 18 19 18 19 21 24 23 24 24
12 8 7 5 4 3 4 5 7 8 10 12 13 14 13 13 14 15 15 17 18 19 17 19 19 19 22 23 26 26 22 18
14 9 8 6 4 4 4 5 7 8 10 12 13 14 12 13 15 16 16 17 18 18 19 19 20 21 20 20 21 23 23 16
16 10 7 5 5 4 4 4 7 9 12 12 13 11 10 11 16 15 19 19 19 20 20 20 20 21 22 22 21 20 22 24
16 11 7 6 5 3 3 4 7 10 12 13 14 13 13 16 15 17 19 20 21 20 21 21 22 22 21 21 21 21 20 26
17 12 8 6 5 3 3 5 7 10 12 13 12 13 13 12 14 17 18 19 21 22 21 21 22 22 22 21 22 23 22 24
16 11 8 5 4 3 3 5 7 10 12 13 14 15 15 14 14 16 17 20 20 21 22 23 23 24 24 24 24 24 24 25
17 12 8 5 2 2 4 5 7 10 12 13 15 16 15 15 15 17 19 18 19 21 24 24 24 23 24 26 27 25 23 25
16 12 8 4 2 2 4 6 8 11 13 14 15 15 14 14 14 17 17 18 21 25 25 26 25 23 24 25 29 27 26 25
16 11 8 5 2 4 6 8 10 13 15 16 16 16 16 16 17 16 17 19 21 24 25 25 24 24 24 26 28 29 29 28
16 12 8 5 2 4 7 10 12 14 16 17 18 17 17 19 19 18 20 22 24 25 25 25 25 23 24 26 28 28 28 30
16 12 9 5 1 3 7 10 12 14 16 18 18 19 19 20 21 20 21 23 24 25 25 26 25 24 24 25 26 27 27 30
16 12 8 4 0 4 8 11 13 15 16 18 18 19 20 20 21 22 21 23 23 24 24 25 25 24 25 25 28 28 30 33
15 14 10 5 2 5 8 11 13 15 17 17 17 18 19 19 21 23 22 23 23 24 24 24 25 24 25 26 25 30 34 37
16 13 9 4 2 6 9 11 13 16 16 16 17 19 19 20 22 23 22 23 24 24 24 24 24 24 25 23 31 35 36 39
16 14 9 3 3 7 11 12 13 15 14 15 17 18 18 19 22 22 22 23 22 24 24 25 24 26 21 31 34 36 40 41
16 12 8 1 5 9 11 12 13 12 12 13 14 16 18 22 21 21 21 22 22 23 22 24 27 26 26 29 31 36 38 36
16 12 6 1 5 8 9 10 10 10 11 12 14 17 20 21 20 21 22 22 23 23 23 25 26 25 29 29 31 35 33 34
16 10 2 2 5 7 8 9 9 10 11 13 14 19 18 18 19 22 22 22 23 23 23 25 26 26 31 32 34 35 33 31
Wind_Direction
182 184 197 208 216 234 262 289 308 320 331 331 334 339 343 343 338 335 337 338 335 331 328 323 317 311 307 305 300 289 280 279
183 186 202 209 231 255 276 290 312 329 332 330 338 338 340 339 335 335 335 336 336 334 333 331 323 314 312 310 309 304 292 283
186 185 201 215 231 250 275 309 328 335 336 336 338 338 334 335 338 339 339 338 335 331 329 328 327 321 315 312 307 306 300 299
191 186 190 205 227 246 273 319 336 339 342 343 342 335 328 325 336 339 337 338 336 330 328 328 327 326 321 313 307 303 309 301
193 186 177 203 228 257 302 323 337 340 343 345 342 337 333 330 336 337 340 338 336 331 327 324 324 325 326 319 313 304 304 298
191 181 174 193 223 252 295 332 338 341 339 340 343 334 332 330 329 333 335 337 336 333 328 324 320 321 322 320 314 306 295 285
190 177 175 181 225 263 312 340 337 338 340 339 339 338 337 331 330 335 331 333 331 330 329 326 324 321 322 321 314 306 294 287
187 178 174 172 215 291 326 336 337 338 338 338 338 340 338 335 331 330 331 327 326 327 329 330 325 319 317 316 315 313 304 293
183 175 173 177 224 301 320 331 342 336 336 338 340 339 336 335 325 328 327 324 324 327 327 327 326 321 317 313 308 313 306 293
178 174 172 180 213 295 323 336 336 332 334 336 335 335 334 333 328 327 323 326 324 325 326 322 321 317 318 314 309 310 309 305
177 175 177 189 245 314 327 334 334 334 334 333 332 332 331 330 333 330 330 330 329 327 324 320 317 316 315 311 310 310 306 306
180 178 177 188 237 335 336 334 334 334 335 333 332 330 332 332 333 334 330 331 329 327 326 322 320 317 315 309 311 309 304 305
181 177 167 164 349 338 341 336 334 335 335 333 333 333 336 337 334 336 332 330 330 327 326 323 321 319 315 313 313 309 308 306
176 180 187 196 285 333 344 341 340 340 338 338 337 337 339 338 336 335 335 332 330 329 328 325 322 322 316 315 312 309 309 308
178 186 187 196 315 345 341 340 338 338 341 342 337 339 340 337 339 338 335 332 331 331 332 328 324 322 320 316 314 313 310 309
182 178 185 194 342 337 342 330 333 338 341 343 341 340 336 339 340 340 335 333 335 332 333 332 330 329 325 318 319 316 312 313
174 161 176 203 329 345 328 332 338 344 342 347 343 338 337 342 342 341 335 338 337 333 334 336 333 332 328 327 325 319 316 314
166 154 164 1 329 318 332 337 344 345 346 355 345 342 347 346 345 341 341 337 335 338 341 337 336 337 334 336 335 327 322 316
154 155 175 258 307 329 341 350 353 357 353 360 348 347 348 347 347 345 341 343 339 341 339 339 337 339 342 348 343 336 330 322
Height
1524 1524 1523 1524 1525 1525 1526 1526 1525 1524 1522 1520 1518 1515 1512 1509 1507 1504 1500 1496 1493 1491 1488 1485 1481 1479 1477 1474 1471 1469 1467 1466
1520 1521 1521 1522 1522 1522 1522 1522 1522 1521 1519 1518 1515 1513 1510 1508 1505 1502 1498 1494 1491 1487 1484 1481 1478 1475 1472 1470 1467 1464 1462 1461
1516 1518 1518 1519 1519 1519 1519 1519 1518 1518 1516 1515 1513 1509 1507 1505 1502 1498 1495 1491 1487 1485 1481 1478 1474 1471 1468 1465 1464 1461 1457 1457
1513 1515 1515 1516 1516 1516 1516 1516 1515 1514 1514 1512 1510 1509 1507 1504 1499 1495 1491 1488 1483 1480 1478 1474 1471 1468 1464 1461 1460 1459 1452 1452
1510 1512 1513 1513 1514 1514 1514 1513 1512 1511 1511 1510 1509 1507 1504 1500 1496 1492 1488 1484 1481 1477 1475 1471 1467 1463 1459 1457 1455 1454 1449 1449
1506 1508 1510 1511 1511 1512 1512 1511 1510 1508 1508 1507 1506 1504 1501 1498 1495 1489 1485 1481 1478 1474 1471 1468 1463 1458 1455 1453 1450 1448 1447 1445
1505 1506 1506 1508 1509 1509 1509 1509 1507 1506 1505 1504 1502 1499 1496 1495 1491 1487 1482 1477 1474 1471 1468 1463 1459 1454 1450 1447 1445 1443 1441 1438
1502 1503 1506 1507 1508 1508 1507 1506 1506 1504 1503 1500 1498 1495 1492 1490 1488 1484 1478 1475 1471 1466 1463 1458 1454 1450 1446 1442 1440 1437 1434 1431
1499 1500 1503 1505 1505 1505 1505 1505 1503 1501 1499 1496 1494 1492 1490 1487 1484 1480 1476 1473 1467 1461 1457 1453 1449 1445 1442 1438 1435 1431 1427 1423
1495 1498 1500 1502 1503 1503 1502 1502 1500 1498 1495 1493 1490 1488 1485 1482 1479 1477 1473 1467 1462 1456 1452 1448 1445 1441 1436 1433 1429 1424 1420 1416
1492 1495 1497 1499 1499 1499 1499 1499 1497 1495 1493 1490 1488 1485 1482 1477 1473 1472 1468 1463 1458 1451 1447 1444 1440 1436 1431 1428 1423 1418 1413 1409
1490 1493 1494 1495 1496 1497 1496 1496 1494 1492 1490 1487 1484 1481 1478 1473 1469 1465 1463 1458 1454 1448 1442 1438 1434 1430 1426 1423 1417 1412 1408 1401
1487 1491 1493 1494 1494 1494 1494 1493 1492 1490 1487 1484 1480 1477 1473 1471 1467 1462 1459 1455 1450 1444 1438 1434 1429 1424 1422 1417 1410 1406 1400 1393
1486 1487 1488 1490 1491 1490 1490 1490 1489 1486 1484 1481 1478 1473 1470 1466 1463 1459 1455 1451 1445 1440 1434 1429 1424 1419 1417 1411 1406 1399 1392 1384
1481 1484 1486 1487 1487 1487 1486 1486 1485 1482 1480 1479 1476 1472 1467 1463 1458 1455 1453 1448 1442 1437 1430 1425 1420 1414 1410 1406 1399 1390 1383 1376
1478 1480 1483 1483 1484 1484 1483 1483 1481 1478 1476 1474 1473 1472 1468 1460 1455 1452 1449 1444 1440 1435 1427 1422 1416 1410 1406 1398 1391 1383 1374 1365
1477 1477 1480 1482 1482 1481 1481 1481 1479 1476 1472 1469 1469 1469 1465 1458 1454 1450 1447 1441 1436 1432 1426 1419 1413 1407 1400 1392 1385 1376 1367 1359
1474 1476 1477 1479 1480 1481 1480 1478 1477 1474 1472 1467 1466 1464 1459 1455 1453 1449 1443 1439 1434 1427 1422 1418 1410 1403 1395 1387 1379 1370 1361 1353
1470 1473 1475 1477 1478 1478 1477 1477 1476 1473 1471 1465 1465 1461 1457 1454 1451 1448 1441 1436 1431 1424 1420 1415 1408 1401 1391 1383 1372 1363 1354 1347